Location: Barcelona
(41.3830°N, 2.1830°E)
Time: 13:52:43
(UTC+01:00)

ISS - Pass Details

Date: 09 December 2017
Orbit: 402 x 406 km, 51.6° (Epoch: 16 December)

Event Time Altitude Azimuth Distance (km) Brightness Sun altitude
Rises 18:16:52 0° 305° (NW) 2,331 0.5 -10.1°
Reaches altitude 10° 18:19:40 10° 331° (NNW) 1,469 -0.9 -10.6°
Maximum altitude 18:21:35 15° 6° (N) 1,226 -1.7 -11.0°
Enters shadow 18:22:50 12° 31° (NNE) 1,332 -1.7 -11.2°
